Showing default

QIANFAN-119, 68646

Orbit data source: Space-Track

QIANFAN-119, 68646 is a Chinese payload satellite in LEO that was launched on Tue, 07 Apr 2026 UTC via a CHANG ZHENG 8 launch vehicle from the Wenchang Satellite Launch Center (WSC). Payload-class satellites include a variety of spacecraft equipped with specific instruments for various scientific and technological missions. These include communications satellites like Starlink; space stations such as the ISS; scientific satellites like the Hubble; Earth observation satellites from companies like Planet Labs, Umbra, and HawkEye 360; GPS; miniature CubeSats for education and research; and military/defense satellites.

Loading next visibility...
Identifier
68646, 2026-075L
Orbit
LEO
Country
Flag of CNCN / PRC
Related business
Manufacturer
SECM
Mission
Operational spacecraft
Bus & Motor
QIANFAN, Unknown motor
Mass
267 kg wet, ~267 kg dry
Launch date (UTC)
2026-04-07 (2 months ago)
Launch vehicle
CHANG ZHENG 8
Launch site
Wenchang Satellite Launch Center (WSC)
Object type
Payload
Rocket body
Debris
Shape & HBR
Unknown shape, 14.5 m
Radar Cross Section
Large (>1 m²)

Expand to show TLE details & history
Last TLE update: 14 hours ago

TLE from 14 hours ago
0 QIANFAN-119
1 68646U 26075L   26171.27850254  .00000070  00000-0  89192-4 0  9990
2 68646  88.9896 320.6847 0001718 103.4795 256.6548 13.51017068 10229
Epoch: 2026-06-20T06:41Z
TLE epoch observation values (Epoch: 2026-06-20T06:41:02.619Z)
Latitude
0.00001°
Longitude
-48.07163°
Altitude
1,071.768 km
Speed
7.316 km/s
True Right ascension
21h 22m 44s
True Declination
0° 00' 00"
Sunlit
Object was in full shadow at epoch
Visualization orbit readout
Latitude
Unknown
Longitude
Unknown
Altitude
Unknown
Speed
Unknown
Apparent Right ascension
Unknown
Apparent Declination
Unknown
Sunlit
N/A
Visualization observer readout
Local Sidereal Time
07:13:18
Azimuth
Unknown
Elevation
Unknown
Doppler factor
Unknown
Orbital elements
Apogee altitude
1,066.849 km
Perigee altitude
1,064.291 km
Semi-major axis
7,443.707 km
Eccentricity
0.00017
Inclination
88.9896°
RAAN
320.6847°
Arg. of periapsis
103.4795°
True anomaly
256.63565°
Mean anomaly
256.6548°
Eccentric anomaly
256.64522°
Mean motion
3.37955 °/min
Orbital period
106.52 mins
BSTAR
0.000089192
Loading maneuver chart data...
Computing Atmospheric mass density...
Loading historical data...
Loading historical data...
Loading historical data...
Loading historical data...
Loading historical data...
Loading historical data...
Loading historical data...

Documentation

Showing up to 5 results
|